FW0683 Weather Reports


time (UTC)temp
C
wind
direction
speed
KPH
gust
KPH
rain 1hr
cm
rain 24hr
cm
rain mn
cm
humidity
%
barometer
mb
20260902194532 20 65 0.0 0.0 0.00 0.00 0.00 75 1026.0
20260902193024 20 58 0.0 0.0 0.00 0.00 0.00 75 1026.2
20260902191522 21 338 0.0 0.0 0.00 0.00 0.00 73 1026.2
20260902190030 21 109 0.0 0.0 0.00 0.00 0.00 76 1025.9
20260902184530 20 120 0.0 0.0 0.00 0.00 0.00 74 1025.7
20260902183021 20 101 0.0 0.0 0.00 0.00 0.00 72 1025.7
20260902181521 20 94 0.0 0.0 0.00 0.00 0.00 76 1026.0
20260902180020 20 94 0.0 0.0 0.00 0.03 0.00 77 1026.3
20260902174519 20 96 0.0 0.0 0.00 0.03 0.00 74 1026.4
20260902173019 20 223 0.0 0.0 0.00 0.03 0.00 74 1026.2
20260902171519 20 230 0.0 0.0 0.00 0.03 0.00 72 1026.4
20260902170018 21 262 0.0 0.0 0.00 0.03 0.00 74 1026.4
20260902164517 21 102 0.0 0.0 0.00 0.03 0.00 75 1026.4
20260902163024 21 189 0.0 0.0 0.00 0.03 0.00 74 1026.3
20260902161516 21 335 0.0 0.0 0.00 0.03 0.00 75 1026.7
20260902160014 21 77 0.0 0.0 0.00 0.03 0.00 77 1026.9
20260902154511 20 108 0.0 0.0 0.00 0.03 0.00 79 1026.9
20260902153009 20 119 0.0 0.0 0.00 0.03 0.00 78 1027.0
20260902151516 20 18 0.0 0.0 0.00 0.03 0.00 81 1027.0
20260902150009 20 38 0.0 0.0 0.00 0.03 0.00 81 1026.9
20260902144508 20 233 0.0 0.0 0.00 0.03 0.00 84 1026.7
20260902143100 19 212 0.0 0.0 0.00 0.03 0.00 85 1026.5
20260902141557 18 212 0.0 0.0 0.00 0.03 0.00 87 1026.3
20260902140056 18 326 0.0 0.0 0.00 0.03 0.00 91 1026.3
20260902134552 17 234 0.0 0.0 0.00 0.15 0.00 93 1026.3
20260902133049 17 234 0.0 0.0 0.00 0.15 0.00 93 1026.3
20260902131548 17 19 0.0 0.0 0.00 0.15 0.00 94 1026.3
20260902130049 17 103 0.0 0.0 0.00 0.15 0.00 94 1026.4
20260902124545 17 77 0.0 0.0 0.00 0.46 0.00 94 1026.2
20260902123050 17 86 0.0 0.0 0.00 0.46 0.00 95 1026.4
20260902121543 16 86 0.0 0.0 0.00 0.46 0.00 95 1026.4
20260902120046 16 86 0.0 0.0 0.00 0.56 0.00 95 1026.4
20260902114540 16 86 0.0 0.0 0.00 0.56 0.00 95 1026.3
20260902113046 16 86 0.0 0.0 0.00 0.56 0.00 95 1026.2
20260902111543 16 90 0.0 0.0 0.00 0.56 0.00 95 1026.1
20260902110035 16 90 0.0 0.0 0.00 0.56 0.00 95 1025.8
20260902104540 16 90 0.0 0.0 0.00 0.56 0.00 95 1025.8
20260902103035 16 90 0.0 0.0 0.00 0.56 0.00 94 1025.7
20260902101536 16 87 0.0 0.0 0.00 0.56 0.00 94 1025.6
20260902100032 16 88 0.0 0.0 0.00 0.56 0.00 94 1025.6
20260902094533 16 87 0.0 0.0 0.00 0.56 0.00 94 1025.4
20260902093036 16 87 0.0 0.0 0.00 0.56 0.00 94 1025.4
20260902091529 16 87 0.0 0.0 0.00 0.56 0.00 94 1025.3
20260902090029 16 87 0.0 0.0 0.00 0.56 0.00 94 1025.1
20260902084528 16 87 0.0 0.0 0.00 0.56 0.00 94 1025.2
20260902083028 16 88 0.0 0.0 0.00 0.56 0.00 94 1025.3
20260902081527 16 88 0.0 0.0 0.00 0.56 0.00 94 1025.3
20260902080028 16 87 0.0 0.0 0.00 0.56 0.00 94 1025.4
20260902074526 16 87 0.0 0.0 0.00 0.56 0.00 94 1025.4
20260902073026 16 88 0.0 0.0 0.00 0.56 0.00 94 1025.3
20260902071525 16 87 0.0 0.0 0.00 0.56 0.00 94 1025.2
20260902070024 16 87 0.0 0.0 0.00 0.56 0.00 94 1025.0
20260902064523 16 87 0.0 0.0 0.00 0.56 0.00 94 1025.1
20260902063023 16 87 0.0 0.0 0.00 0.56 0.00 94 1025.0
20260902061539 16 87 0.0 0.0 0.00 0.56 0.00 94 1025.0
20260902060022 16 87 0.0 0.0 0.00 0.56 0.00 94 1025.2
20260902054521 16 87 0.0 0.0 0.00 0.56 0.00 94 1025.2
20260902053020 16 87 0.0 0.0 0.00 0.56 0.00 94 1025.1
20260902051517 16 87 0.0 0.0 0.00 0.56 0.00 94 1024.8
20260902050017 16 87 0.0 0.0 0.00 0.56 0.00 94 1024.6
20260902044514 16 87 0.0 0.0 0.00 0.56 0.00 94 1024.3
20260902043012 16 87 0.0 0.0 0.00 0.56 0.00 94 1024.0
20260902041511 16 87 0.0 0.0 0.00 0.56 0.00 94 1024.0
20260902040011 16 87 0.0 0.0 0.00 0.56 0.56 94 1023.7
20260902034512 16 87 0.0 0.0 0.00 0.56 0.56 93 1023.6
20260902033017 16 87 0.0 0.0 0.00 0.56 0.56 93 1023.6
20260902031508 16 87 0.0 0.0 0.00 0.56 0.56 93 1023.5
20260902030008 16 87 0.0 0.0 0.00 0.56 0.56 93 1023.4
20260902024507 16 87 0.0 0.0 0.00 0.56 0.56 93 1023.5
20260902023007 16 87 0.0 0.0 0.00 0.56 0.56 93 1023.5
20260902021521 16 87 0.0 0.0 0.00 0.56 0.56 93 1023.5
20260902020008 16 87 0.0 0.0 0.00 0.56 0.56 93 1023.5
20260902014505 16 87 0.0 0.0 0.00 0.56 0.56 93 1023.8
20260902013004 17 88 0.0 0.0 0.00 0.56 0.56 92 1023.6
20260902011503 17 87 0.0 0.0 0.00 0.56 0.56 92 1023.6
20260902010002 17 87 0.0 0.0 0.00 0.56 0.56 92 1023.5
20260902004503 17 87 0.0 0.0 0.00 0.56 0.56 92 1023.3
20260902003001 17 87 0.0 0.0 0.00 0.56 0.56 92 1023.3
20260902001559 17 87 0.0 0.0 0.00 0.56 0.56 91 1023.1
20260902000059 17 88 0.0 0.0 0.00 0.56 0.56 90 1022.7
20260901234559 17 87 0.0 0.0 0.00 0.56 0.56 90 1022.9
20260901233058 17 87 0.0 0.0 0.00 0.56 0.56 89 1023.1
20260901231558 18 87 0.0 0.0 0.00 0.56 0.56 89 1023.1
20260901230057 18 87 0.0 0.0 0.00 0.56 0.56 88 1023.0
20260901224558 18 87 0.0 0.0 0.00 0.56 0.56 87 1022.8
20260901223054 18 98 0.0 0.0 0.00 0.56 0.56 86 1022.7
20260901221554 18 95 0.0 0.0 0.00 0.56 0.56 86 1022.7
20260901220057 19 95 0.0 0.0 0.00 0.56 0.56 85 1022.6
20260901214554 19 90 0.0 0.0 0.00 0.56 0.56 85 1022.5
20260901213051 19 94 0.0 0.0 0.00 0.56 0.56 86 1022.6
20260901211550 19 93 0.0 0.0 0.00 0.56 0.56 85 1022.5
20260901210050 19 76 0.0 0.0 0.00 0.56 0.56 85 1022.4
20260901204549 19 89 0.0 0.0 0.00 0.56 0.56 85 1022.3
20260901203050 19 84 0.0 0.0 0.00 0.56 0.56 85 1022.0
20260901201547 19 85 0.0 0.0 0.00 0.56 0.56 85 1022.1